Flag for Germany Weather past 2 weeks in Hanau, Hesse, Germany

Now
36 °F

Clear.


Feels Like: 31 °F
Forecast: 34 / 48 °F
Wind: 6 mph from Northwest

Location: Frankfurt-M-Flughafen Airport

Current Time: Mar 5, 2015 at 10:07:11 PM

Latest Report: Mar 5, 2015 at 9:20 PM


Visibility: 10 mi

Pressure: 30.63 "Hg

Humidity: 81%

Dew point: 30 °F

Location of HanauLocation

Historic Weather in Hanau — Graph

°F

Hanau temperature yesterday

Maximum temperature yesterday: 46 °F (at 3:20 PM)
Minimum temperature yesterday: 34 °F (at 3:20 AM)
Average temperature yesterday: 40 °F

Past Weeks' High & Low Weather Summary

 TemperatureHumidityPressure
High52 °F (Feb 20, 1:50 PM)100% (Feb 22, 2:50 AM)30.66 "Hg (Feb 22, 2:50 AM)
Low28 °F (Feb 28, 6:50 AM)35% (Mar 2, 2:50 PM)29.45 "Hg (Feb 21, 7:20 AM)
Average40 °F77%29.98 "Hg
* Reported Feb 18 8:20 PM — Mar 5 8:50 PM, Hanau, Weather by CustomWeather, © 2015

Note: Actual official high and low records may vary slightly from our data, if they occured in-between our weather recording intervals... More about our weather records

Advertising

Hanau weather history for previous 24 hours

 ConditionsComfort  
Time TempWeatherWind HumidityBarometerVisibility
8:50 PM
Thu, Mar 5
39 °FClear.5 mph70%30.63 "Hg10 mi
8:20 PM41 °FPassing clouds.6 mph70%30.63 "HgN/A
7:50 PM41 °FPassing clouds.7 mph66%30.63 "HgN/A
7:20 PM43 °FPassing clouds.8 mph66%30.63 "HgN/A
6:50 PM43 °FPassing clouds.7 mph66%30.63 "HgN/A
6:20 PM45 °FPassing clouds.8 mph61%30.60 "HgN/A
5:50 PM45 °FScattered clouds.12 mph57%30.60 "HgN/A
5:20 PM46 °FBroken clouds.10 mph53%30.60 "HgN/A
4:50 PM46 °FBroken clouds.7 mph53%30.60 "HgN/A
4:20 PM46 °FBroken clouds.8 mph50%30.60 "HgN/A
3:50 PM46 °FPartly sunny.10 mph50%30.60 "HgN/A
3:20 PM46 °FBroken clouds.12 mph53%30.60 "HgN/A
2:50 PM46 °FBroken clouds.12 mph53%30.60 "HgN/A
2:20 PM46 °FBroken clouds.12 mph53%30.60 "HgN/A
1:50 PM46 °FBroken clouds.7 mph53%30.60 "HgN/A
1:20 PM45 °FBroken clouds.7 mph53%30.60 "HgN/A
12:50 PM45 °FBroken clouds.10 mph57%30.63 "HgN/A
12:20 PM45 °FScattered clouds.10 mph57%30.63 "HgN/A
11:50 AM45 °FScattered clouds.8 mph57%30.63 "HgN/A
11:20 AM43 °FScattered clouds.12 mph61%30.63 "HgN/A
10:50 AM43 °FScattered clouds.8 mph61%30.63 "HgN/A
10:20 AM41 °FScattered clouds.7 mph66%30.63 "HgN/A
9:50 AM41 °FPartly sunny.6 mph66%30.63 "HgN/A
9:20 AM41 °FPartly sunny.8 mph70%30.63 "HgN/A
8:50 AM39 °FPartly sunny.6 mph75%30.60 "HgN/A
8:20 AM39 °FScattered clouds.7 mph70%30.60 "HgN/A
7:50 AM39 °FScattered clouds.8 mph70%30.57 "HgN/A
7:20 AM37 °FPartly sunny.6 mph75%30.57 "HgN/A
6:50 AM39 °FPassing clouds.5 mph65%30.57 "HgN/A
6:20 AM39 °FPassing clouds.7 mph65%30.57 "HgN/A
5:50 AM39 °FPassing clouds.5 mph70%30.54 "HgN/A
5:20 AM39 °FPassing clouds.9 mph70%30.54 "HgN/A
4:20 AM37 °FPassing clouds.9 mph75%30.51 "HgN/A
3:50 AM39 °FPassing clouds.7 mph75%30.51 "HgN/A
2:50 AM39 °FPassing clouds.3 mph75%30.48 "HgN/A
2:20 AM41 °FScattered showers. Passing clouds.7 mph70%30.48 "HgN/A
1:50 AM41 °FLight rain. Passing clouds.12 mph70%30.48 "HgN/A
1:20 AM41 °FPassing clouds.13 mph70%30.45 "HgN/A
12:50 AM41 °FPassing clouds.10 mph70%30.45 "HgN/A
12:20 AM41 °FPassing clouds.10 mph76%30.45 "HgN/A
11:50 PM
Wed, Mar 4
41 °FLight rain. Passing clouds.8 mph70%30.42 "HgN/A
11:20 PM39 °FLight rain. Passing clouds.7 mph75%30.42 "HgN/A
10:20 PM39 °FPassing clouds.12 mph75%30.42 "HgN/A
Weather by CustomWeather, © 2015

See weather overviewHow to use our weather pages